Weather History for KBJI - May, 2009

Change the Weather History Date:

Wednesday, May 13, 2009

  Actual Average Record
Temperature  
Mean Temperature 58 °F -  
Max Temperature 65 °F 63 °F 89 °F (1977)
Min Temperature 52 °F 37 °F 22 °F (1953)
Degree Days  
Heating Degree Days 6    
Growing Degree Days 8 (Base 50)    
Moisture  
Dew Point 47 °F    
Average Humidity 66    
Maximum Humidity 97    
Minimum Humidity 31    
Precipitation  
Precipitation 0.09 in - - ()
Sea Level Pressure  
Sea Level Pressure 29.40 in    
Wind  
Wind Speed 19 mph (SW)    
Max Wind Speed 31 mph    
Max Gust Speed 37 mph    
Visibility 10 miles    
Events Rain , Thunderstorm    
Averages and records for this station are not official NWS values.
T = Trace of Precipitation, MM = Missing Value Source: NWS Daily Summary

Daily Weather History Graph

Daily Weather History Graph

Search for Another Location

Airport or City:

Trip Planner

Search our weather history database for the weather conditions in past years. The results will help you decide how hot, cold, wet, or windy it might be!

Date:

Astronomy

May. 13, 2009 Rise Set
Actual Time 5:44 AM CDT 8:48 PM CDT
Civil Twilight 5:08 AM CDT 9:24 PM CDT
Nautical Twilight 4:21 AM CDT 10:11 PM CDT
Astronomical Twilight 3:24 AM CDT 11:09 PM CDT
Moon 12:35 AM CDT (5/13) 8:47 AM CDT (5/13)
Length of Visible Light 16h 15m
Length of Day
15h 03m
Waning Gibbous, 82% of the Moon is Illuminated
May 13
Waning Gibbous
May 17
Last Quarter
May 24
New
May 30
First Quarter
Jun 7
Full

Hourly Weather History & Observations

Time (CDT) Temp. Windchill Dew Point Humidity Pressure Visibility Wind Dir Wind Speed Gust Speed Precip Events Conditions
12:15 AM 57.6 °F - 51.4 °F 80% 29.49 in 10.0 mi South 20.7 mph 32.2 mph N/A   Overcast
12:35 AM 56.1 °F - 52.2 °F 87% 29.44 in 10.0 mi SSE 21.9 mph 29.9 mph N/A   Overcast
12:55 AM 55.9 °F - 52.9 °F 89% 29.44 in 10.0 mi South 15.0 mph 24.2 mph N/A   Overcast
1:15 AM 56.3 °F - 52.7 °F 88% 29.44 in 10.0 mi South 18.4 mph 25.3 mph N/A   Overcast
1:35 AM 56.3 °F - 53.1 °F 89% 29.44 in 10.0 mi South 18.4 mph 28.8 mph N/A   Overcast
1:55 AM 56.3 °F - 53.4 °F 90% 29.42 in 10.0 mi South 20.7 mph 31.1 mph N/A Rain Light Rain
2:15 AM 55.8 °F - 54.0 °F 94% 29.43 in 10.0 mi South 13.8 mph 25.3 mph N/A Rain Light Rain
2:35 AM 55.9 °F - 54.3 °F 94% 29.43 in 10.0 mi South 17.3 mph 25.3 mph 0.01 in Rain Light Rain
2:55 AM 55.6 °F - 54.5 °F 96% 29.42 in 10.0 mi South 13.8 mph 21.9 mph 0.02 in Rain Rain
3:15 AM 55.4 °F - 54.5 °F 97% 29.40 in 10.0 mi South 17.3 mph 21.9 mph 0.03 in Rain Rain
3:35 AM 55.4 °F - 54.5 °F 97% 29.36 in 10.0 mi SSE 18.4 mph 21.9 mph 0.04 in Rain Rain
3:55 AM 55.4 °F - 54.5 °F 97% 29.32 in 10.0 mi SSE 19.6 mph 26.5 mph 0.04 in   Mostly Cloudy
4:15 AM 55.8 °F - 54.5 °F 96% 29.34 in 10.0 mi South 18.4 mph 25.3 mph N/A   Overcast
4:35 AM 55.9 °F - 54.5 °F 95% 29.34 in 10.0 mi South 17.3 mph 26.5 mph N/A Rain Rain
4:55 AM 55.9 °F - 54.9 °F 96% 29.34 in 10.0 mi South 19.6 mph 27.6 mph 0.02 in Rain Light Rain
5:15 AM 56.3 °F - 54.9 °F 95% 29.34 in 10.0 mi South 18.4 mph 29.9 mph N/A   Overcast
5:35 AM 56.5 °F - 55.0 °F 95% 29.32 in 10.0 mi South 18.4 mph 25.3 mph N/A   Overcast
5:55 AM 56.5 °F - 55.0 °F 95% 29.32 in 10.0 mi South 15.0 mph 20.7 mph N/A   Overcast
6:15 AM 57.4 °F - 55.4 °F 93% 29.32 in 10.0 mi SSW 15.0 mph 20.7 mph N/A   Overcast
6:35 AM 55.9 °F - 50.4 °F 82% 29.36 in 10.0 mi WSW 17.3 mph 32.2 mph 0.01 in   Overcast
6:55 AM 54.1 °F - 49.5 °F 84% 29.37 in 10.0 mi WSW 16.1 mph 26.5 mph 0.01 in   Overcast
7:15 AM 52.9 °F - 48.6 °F 85% 29.38 in 10.0 mi WSW 15.0 mph 21.9 mph N/A   Overcast
7:35 AM 53.1 °F - 47.1 °F 80% 29.39 in 10.0 mi SW 12.7 mph 21.9 mph N/A   Overcast
7:55 AM 53.6 °F - 46.0 °F 76% 29.39 in 10.0 mi SW 11.5 mph 23.0 mph N/A   Scattered Clouds
8:15 AM 54.5 °F - 45.7 °F 72% 29.39 in 10.0 mi WSW 12.7 mph 21.9 mph N/A   Clear
8:35 AM 55.4 °F - 45.7 °F 70% 29.39 in 10.0 mi SW 15.0 mph 20.7 mph N/A   Clear
8:55 AM 56.5 °F - 45.7 °F 67% 29.39 in 10.0 mi SW 13.8 mph 19.6 mph N/A   Clear
9:15 AM 57.6 °F - 45.1 °F 63% 29.39 in 10.0 mi SW 12.7 mph 26.5 mph N/A   Clear
9:35 AM 58.5 °F - 44.1 °F 59% 29.39 in 10.0 mi SW 23.0 mph 29.9 mph N/A   Clear
9:55 AM 59.4 °F - 44.2 °F 57% 29.39 in 10.0 mi SW 21.9 mph 29.9 mph N/A   Clear
10:15 AM 60.1 °F - 43.9 °F 55% 29.38 in 10.0 mi SW 20.7 mph 33.4 mph N/A   Clear
10:35 AM 61.0 °F - 44.6 °F 55% 29.39 in 10.0 mi SW 18.4 mph 31.1 mph N/A   Clear
10:55 AM 62.1 °F - 45.0 °F 53% 29.39 in 10.0 mi SSW 19.6 mph 27.6 mph N/A   Clear
11:15 AM 62.8 °F - 44.6 °F 51% 29.39 in 10.0 mi SW 23.0 mph 29.9 mph N/A   Clear
11:35 AM 63.3 °F - 44.6 °F 50% 29.40 in 10.0 mi SW 20.7 mph 26.5 mph N/A   Clear
11:55 AM 63.5 °F - 45.0 °F 51% 29.40 in 10.0 mi WSW 23.0 mph 28.8 mph N/A   Clear
12:15 PM 64.2 °F - 44.4 °F 49% 29.40 in 10.0 mi SW 18.4 mph 29.9 mph N/A   Clear
12:35 PM 64.2 °F - 44.8 °F 49% 29.40 in 7.0 mi WSW 24.2 mph 33.4 mph N/A   Clear
12:55 PM 64.6 °F - 45.5 °F 50% 29.41 in 10.0 mi West 31.1 mph 36.8 mph N/A   Scattered Clouds
1:15 PM 65.1 °F - 45.9 °F 50% 29.41 in 10.0 mi WSW 18.4 mph 32.2 mph N/A   Mostly Cloudy
1:35 PM 64.9 °F - 45.9 °F 50% 29.41 in 7.0 mi WSW 25.3 mph 35.7 mph N/A   Mostly Cloudy
1:55 PM 65.3 °F - 44.6 °F 47% 29.42 in 7.0 mi West 24.2 mph 35.7 mph N/A   Mostly Cloudy
2:15 PM 63.7 °F - 44.6 °F 50% 29.42 in 10.0 mi WSW 21.9 mph 29.9 mph N/A   Mostly Cloudy
2:35 PM 65.7 °F - 44.4 °F 46% 29.42 in 10.0 mi West 24.2 mph 31.1 mph N/A   Mostly Cloudy
2:55 PM 64.8 °F - 42.4 °F 44% 29.42 in 10.0 mi West 25.3 mph 36.8 mph N/A   Mostly Cloudy
3:15 PM 65.5 °F - 38.3 °F 37% 29.43 in 10.0 mi WSW 23.0 mph 33.4 mph N/A   Scattered Clouds
3:35 PM 65.5 °F - 37.4 °F 35% 29.42 in 7.0 mi WSW 18.4 mph 36.8 mph N/A   Scattered Clouds
3:55 PM 65.7 °F - 36.0 °F 33% 29.42 in 10.0 mi WSW 23.0 mph 35.7 mph N/A   Clear
4:15 PM 65.1 °F - 37.2 °F 36% 29.43 in 10.0 mi West 24.2 mph 33.4 mph N/A   Clear
4:35 PM 65.3 °F - 33.4 °F 31% 29.44 in 10.0 mi WSW 28.8 mph 35.7 mph N/A   Scattered Clouds
4:55 PM 65.7 °F - 36.0 °F 33% 29.44 in 10.0 mi WSW 24.2 mph 34.5 mph N/A   Scattered Clouds
5:15 PM 64.6 °F - 36.0 °F 35% 29.45 in 10.0 mi WSW 24.2 mph 31.1 mph N/A   Scattered Clouds
5:35 PM 64.0 °F - 36.0 °F 35% 29.45 in 10.0 mi WSW 17.3 mph 32.2 mph N/A   Scattered Clouds
5:55 PM 63.1 °F - 37.8 °F 39% 29.46 in 10.0 mi West 26.5 mph 29.9 mph N/A Thunderstorm Mostly Cloudy
6:15 PM 60.8 °F - 39.6 °F 46% 29.46 in 10.0 mi West 15.0 mph 27.6 mph N/A   Mostly Cloudy
6:35 PM 59.7 °F - 42.1 °F 52% 29.47 in 10.0 mi West 21.9 mph 27.6 mph N/A   Mostly Cloudy
6:55 PM 57.9 °F - 45.5 °F 63% 29.47 in 10.0 mi West 25.3 mph 32.2 mph N/A Rain , Thunderstorm Light Thunderstorms and Rain
7:15 PM 56.7 °F - 43.0 °F 60% 29.48 in 10.0 mi West 23.0 mph 33.4 mph N/A Thunderstorm Thunderstorm
7:35 PM 55.0 °F - 43.0 °F 64% 29.48 in 10.0 mi West 19.6 mph 27.6 mph N/A Thunderstorm Scattered Clouds
7:55 PM 54.3 °F - 44.1 °F 68% 29.49 in 10.0 mi WNW 19.6 mph 24.2 mph N/A Thunderstorm Scattered Clouds
8:15 PM 52.7 °F - 43.0 °F 70% 29.50 in 10.0 mi West 20.7 mph 25.3 mph N/A   Mostly Cloudy
8:35 PM 51.3 °F - 41.7 °F 70% 29.51 in 10.0 mi WNW 20.7 mph 26.5 mph N/A   Overcast
8:55 PM 50.2 °F - 42.8 °F 76% 29.52 in 10.0 mi West 18.4 mph 24.2 mph N/A   Overcast
9:15 PM 49.5 °F - 43.5 °F 80% 29.54 in 10.0 mi WNW 20.7 mph 24.2 mph N/A Rain Rain
9:35 PM 47.7 °F - 43.2 °F 84% 29.54 in 10.0 mi WNW 19.6 mph 24.2 mph N/A   Overcast
9:55 PM 45.5 °F 37.8 °F 40.8 °F 84% 29.56 in 10.0 mi WNW 19.6 mph 27.6 mph N/A   Overcast
10:15 PM 41.7 °F 32.9 °F 39.4 °F 91% 29.57 in 7.0 mi WNW 19.6 mph 28.8 mph N/A   Heavy Drizzle
10:35 PM 39.4 °F 30.4 °F 37.8 °F 94% 29.59 in 10.0 mi WNW 17.3 mph 25.3 mph N/A Rain Light Rain
10:55 PM 37.6 °F 28.1 °F 35.8 °F 93% 29.60 in 10.0 mi WNW 17.3 mph 27.6 mph N/A Rain Light Rain
11:15 PM 35.8 °F 26.1 °F 34.3 °F 94% 29.62 in 10.0 mi WNW 16.1 mph 26.5 mph 0.01 in Rain Light Rain
11:35 PM 34.9 °F 24.2 °F 33.8 °F 96% 29.63 in 10.0 mi WNW 18.4 mph 25.3 mph 0.01 in Snow Light Snow
11:55 PM 34.7 °F 24.7 °F 33.4 °F 95% 29.64 in 10.0 mi WNW 16.1 mph 23.0 mph 0.01 in   Overcast